Terminal Aerodrome Forecast
Issued by NWS Boston, MA

Home | Current Version | Previous Version | Text Only | Print | Product List | Glossary On
Versions: 1 2 3 4 5 6 7 8 9 10 11 12 13 14 15 16 17 18 19 20 21 22 23 24 25 26 27 28 29 30 31 32 33 34 35 36 37 38 39 40 41 42 43 44
000
FTUS41 KBOX 181120
TAFPVD
TAF
KPVD 181120Z 1812/1912 28010G24KT P6SM -RASN SCT025 BKN045
     FM181300 29014G25KT P6SM SCT070
     FM182300 30009KT P6SM SCT025=

USA.gov is the U.S. government's official web portal to all federal, state and local government web resources and services.